Regional Weather Roundup
Issued by NWS

Home | Current Version | Previous Version | Graphics & Text | Print | Product List | Glossary On
Versions: 1 2 3 4 5 6 7 8 9 10 11 12 13 14 15 16 17 18 19 20 21 22 23 24 25 26 27 28 29 30 31 32 33 34 35 36 37 38 39 40 41 42 43 44 45 46 47 48 49 50
000
ASUS43 KLSX 312059
RWRMO

WEATHER SUMMARY FOR MISSOURI
NATIONAL WEATHER SERVICE SPRINGFIELD MO
400 PM CDT FRI JUL 31 2015

NOTE: "FAIR" INDICATES FEW OR NO CLOUDS BELOW 12,000 FEET WITH NO
       SIGNIFICANT WEATHER AND/OR OBSTRUCTIONS TO VISIBILITY.
       CURRENT SKY AND/OR WEATHER CONDITIONS ARE NOT AVAILABLE FOR
       CHILLICOTHE AND FARMINGTON.

MOZ001>031-035>038-043-044-053-054-312200-
...NORTHERN AND WESTERN MISSOURI...

CITY           SKY/WX    TMP DP  RH WIND       PRES   REMARKS
KANSAS CTY INT MOSUNNY   87  69  54 W6        30.10F HX  91
KANSAS C DTWN  SUNNY     91  68  46 NW6       30.07F HX  95
LEE`S SUMMIT   SUNNY     90  62  39 SW7       30.09F HX  90
ST JOSEPH      SUNNY     88  74  63 W6        30.08F HX  96
CHILLICOTHE      N/A     90  70  51 VRB6      30.08F HX  95
KIRKSVILLE     SUNNY     88  66  48 W7        30.08F HX  90

$$
MOZ066>068-077>081-088>096-101>105-312200-
...SOUTHWEST MISSOURI...

CITY           SKY/WX    TMP DP  RH WIND       PRES   REMARKS
SPRINGFIELD    SUNNY     89  56  32 W7        30.12F
JOPLIN         SUNNY     91  63  39 VRB6      30.10F HX  92

$$
MOZ032>034-039>042-045>050-055>058-069>072-312200-
...CENTRAL MISSOURI...

CITY           SKY/WX    TMP DP  RH WIND       PRES   REMARKS
COLUMBIA       SUNNY     89  64  43 W6        30.09F HX  90
JEFFERSON CITY SUNNY     91  60  35 NW6       30.06F HX  90
ROLLA          SUNNY     89  56  32 W12G21    30.09F
SEDALIA        SUNNY     91  58  32 W5        30.09F HX  90
WARRENSBURG    SUNNY     90  54  29 SW5       30.08F
OSAGE BEACH    SUNNY     90  63  40 NW6       30.10F HX  90

$$
MOZ051-052-059>065-312200-
...EAST CENTRAL MISSOURI...

CITY           SKY/WX    TMP DP  RH WIND       PRES   REMARKS
ST LOUIS INTL  MOSUNNY   92  62  36 N8        30.05F HX  92
SPIRIT OF STL  MOSUNNY   92  60  34 NW12      30.04F HX  91
ST CHARLES     SUNNY     91  63  39 N6        30.03F HX  92

$$
MOZ072>076-082>087-097>100-106>115-312200-
...SOUTH CENTRAL AND SOUTHEAST MISSOURI...

CITY           SKY/WX    TMP DP  RH WIND       PRES   REMARKS
CAPE GIRARDEAU SUNNY     90  63  40 MISG      30.04F HX  91
FARMINGTON     SUNNY     88  63  42 NW6       30.12F
POPLAR BLUFF   MOSUNNY   91  63  39 VRB5      30.05F HX  92
WEST PLAINS    SUNNY     88  57  34 W3        30.13F

$$


USA.gov is the U.S. government's official web portal to all federal, state and local government web resources and services.